Date,TemperatureHighF,TemperatureAvgF,TemperatureLowF,DewpointHighF,DewpointAvgF,DewpointLowF,HumidityHigh,HumidityAvg,HumidityLow,PressureMaxIn,PressureMinIn,WindSpeedMaxMPH,WindSpeedAvgMPH,GustSpeedMaxMPH,PrecipitationSumIn
2013-2-1,29.7,17.9,9.1,17.1,-32.0,-99.9,59,23,24,30.39,29.88,5,2,13,0.04
2013-2-2,35.1,24.0,10.9,18.3,-19.7,-99.9,58,35,36,30.33,29.97,5,1,10,0.00
2013-2-3,37.0,29.3,25.7,14.4,8.5,2.5,54,42,24,30.12,29.88,5,2,14,0.00
2013-2-4,47.7,31.1,14.0,27.1,9.3,0.9,64,42,21,30.09,29.82,6,1,15,0.20
2013-2-5,52.2,43.3,38.1,37.0,24.9,13.6,76,52,23,29.97,29.82,5,1,13,0.04
2013-2-6,51.4,40.9,33.6,19.6,13.9,9.0,51,34,21,30.21,29.97,5,1,10,0.00
2013-2-7,63.7,45.0,32.7,19.9,16.4,10.9,53,34,18,30.21,29.88,5,1,10,0.00
2013-2-8,45.3,39.5,34.3,33.1,18.8,9.5,64,43,35,30.27,29.79,4,2,11,0.04
2013-2-9,47.8,34.6,25.2,11.3,5.7,-0.9,49,30,19,30.39,30.21,5,2,10,0.04
2013-2-10,56.1,40.4,25.9,30.0,15.8,4.6,54,39,20,30.21,29.88,6,2,15,0.12
2013-2-11,61.0,51.4,40.5,40.5,21.2,5.5,63,34,19,30.06,29.82,9,4,21,0.00
2013-2-12,57.7,41.1,28.8,20.1,10.9,4.1,51,30,19,30.15,29.88,6,1,14,0.00
2013-2-13,44.1,36.1,29.5,22.1,15.6,8.8,61,44,25,29.91,29.68,5,1,9,0.00
2013-2-14,55.4,40.4,28.0,27.3,16.6,-99.9,73,44,20,29.97,29.85,7,2,17,0.04
2013-2-15,41.5,35.3,31.3,28.4,20.8,12.0,66,55,42,30.09,29.94,4,0,8,0.08
2013-2-16,39.4,29.1,23.0,13.1,4.2,-4.7,56,36,21,30.09,29.97,5,2,11,0.00
2013-2-17,35.2,25.3,19.0,1.9,-2.8,-7.2,39,29,22,30.21,30.06,5,2,10,0.00
2013-2-18,60.1,37.6,16.5,17.8,7.4,-2.0,47,31,19,30.21,29.79,7,3,16,0.00
2013-2-19,48.9,40.5,28.0,27.7,12.7,-0.9,59,33,21,30.09,29.76,9,5,23,0.08
2013-2-20,38.8,29.6,23.9,2.3,-0.4,-4.0,32,27,21,30.24,30.09,6,3,12,0.00
2013-2-21,41.4,28.6,16.5,9.9,1.5,-2.0,50,32,21,30.33,30.09,6,3,13,0.00
2013-2-22,61.0,43.3,30.6,41.0,26.0,10.4,71,53,24,30.09,29.88,9,2,17,0.32
2013-2-23,55.6,44.1,32.2,31.8,20.6,8.8,63,42,20,29.94,29.85,5,1,10,0.00
2013-2-24,51.8,36.3,25.3,19.0,10.4,3.6,59,37,19,30.12,29.88,5,2,10,0.00
2013-2-25,50.5,36.4,22.8,12.0,6.6,2.7,53,30,19,30.15,29.88,9,3,15,0.00
2013-2-26,57.0,45.7,37.4,37.2,22.7,3.9,68,42,23,29.88,29.41,11,5,23,0.44
2013-2-27,43.7,39.2,34.0,28.0,23.3,17.2,64,53,36,29.76,29.56,6,3,15,0.12
2013-2-28,35.6,34.6,33.3,25.5,20.2,15.3,68,56,46,29.91,29.71,5,3,16,0.08